| time (UTC) | temp F | wind direction | speed knots | gust knots | rain 1hr in | rain 24hr in | rain mn in | humidity % | barometer mb |
| 20260906071557 | 71 | 0 | 0.0 | 0.0 | 0.00 | 0.03 | 0.00 | 91 | 1011.8 |
| 20260906070104 | 71 | 0 | 0.0 | 0.0 | 0.00 | 0.03 | 0.00 | 91 | 1011.8 |
| 20260906064559 | 72 | 0 | 0.0 | 0.0 | 0.00 | 0.03 | 0.00 | 91 | 1012.1 |
| 20260906063058 | 73 | 0 | 0.0 | 0.0 | 0.00 | 0.03 | 0.00 | 90 | 1012.3 |
| 20260906061558 | 72 | 0 | 0.0 | 0.0 | 0.00 | 0.03 | 0.00 | 91 | 1012.6 |
| 20260906060054 | 72 | 0 | 0.0 | 0.0 | 0.00 | 0.03 | 0.00 | 93 | 1012.6 |
| 20260906054610 | 72 | 0 | 0.0 | 0.0 | 0.00 | 0.03 | 0.00 | 92 | 1012.7 |
| 20260906053057 | 73 | 0 | 0.0 | 0.0 | 0.00 | 0.03 | 0.00 | 91 | 1012.7 |
| 20260906051605 | 73 | 0 | 0.0 | 0.0 | 0.00 | 0.03 | 0.00 | 92 | 1012.8 |
| 20260906050108 | 73 | 0 | 0.0 | 0.0 | 0.00 | 0.03 | 0.00 | 91 | 1012.9 |
| 20260906044603 | 73 | 0 | 0.0 | 0.0 | 0.00 | 0.03 | 0.00 | 92 | 1013.1 |
| 20260906043058 | 73 | 0 | 0.0 | 0.0 | 0.00 | 0.03 | 0.00 | 93 | 1013.0 |
| 20260906041604 | 73 | 0 | 0.0 | 0.0 | 0.00 | 0.03 | 0.00 | 93 | 1013.1 |
| 20260906040106 | 74 | 0 | 0.0 | 0.0 | 0.00 | 0.03 | 0.00 | 91 | 1013.4 |
| 20260906034608 | 74 | 0 | 0.0 | 0.0 | 0.00 | 0.03 | 0.03 | 92 | 1013.5 |
| 20260906033107 | 74 | 0 | 0.0 | 0.0 | 0.00 | 0.03 | 0.03 | 92 | 1013.4 |
| 20260906031600 | 75 | 0 | 0.0 | 0.0 | 0.00 | 0.03 | 0.03 | 90 | 1013.4 |
| 20260906030104 | 74 | 0 | 0.0 | 0.0 | 0.00 | 0.03 | 0.03 | 92 | 1013.4 |
| 20260906024603 | 74 | 0 | 0.0 | 0.0 | 0.00 | 0.03 | 0.03 | 92 | 1013.2 |
| 20260906023104 | 74 | 0 | 0.0 | 0.0 | 0.00 | 0.03 | 0.03 | 92 | 1013.1 |
| 20260906021602 | 75 | 0 | 0.0 | 0.0 | 0.00 | 0.03 | 0.03 | 91 | 1013.0 |
| 20260906020106 | 75 | 0 | 0.0 | 0.0 | 0.00 | 0.03 | 0.03 | 89 | 1012.9 |
| 20260906014649 | 76 | 0 | 0.0 | 1.7 | 0.00 | 0.03 | 0.03 | 89 | 1013.0 |
| 20260906013108 | 75 | 0 | 0.0 | 0.0 | 0.00 | 0.03 | 0.03 | 91 | 1012.9 |
| 20260906011603 | 76 | 0 | 0.0 | 0.9 | 0.00 | 0.03 | 0.03 | 91 | 1012.7 |
| 20260906010105 | 76 | 0 | 0.0 | 0.0 | 0.00 | 0.03 | 0.03 | 90 | 1012.7 |
| 20260906004612 | 77 | 0 | 0.0 | 0.0 | 0.00 | 0.03 | 0.03 | 87 | 1012.7 |
| 20260906003115 | 77 | 0 | 0.0 | 0.0 | 0.00 | 0.03 | 0.03 | 86 | 1012.5 |
| 20260906001605 | 78 | 0 | 0.0 | 0.0 | 0.00 | 0.03 | 0.03 | 85 | 1012.2 |
| 20260906000056 | 79 | 0 | 0.0 | 0.0 | 0.00 | 0.03 | 0.03 | 83 | 1012.1 |
| 20260905234609 | 81 | 0 | 0.0 | 0.0 | 0.00 | 0.03 | 0.03 | 81 | 1011.9 |
| 20260905233055 | 83 | 0 | 0.0 | 0.0 | 0.00 | 0.03 | 0.03 | 76 | 1011.9 |
| 20260905231608 | 84 | 0 | 0.0 | 0.0 | 0.00 | 0.03 | 0.03 | 73 | 1011.8 |
| 20260905230111 | 86 | 314 | 0.0 | 0.9 | 0.00 | 0.03 | 0.03 | 71 | 1011.9 |
| 20260905224613 | 85 | 0 | 0.0 | 0.9 | 0.00 | 0.03 | 0.03 | 73 | 1011.8 |
| 20260905223057 | 84 | 0 | 0.0 | 0.9 | 0.00 | 0.03 | 0.03 | 74 | 1011.8 |
| 20260905221616 | 83 | 0 | 0.0 | 4.3 | 0.00 | 0.03 | 0.03 | 75 | 1011.8 |
| 20260905220108 | 82 | 0 | 0.9 | 4.3 | 0.00 | 0.03 | 0.03 | 76 | 1011.8 |
| 20260905214603 | 82 | 290 | 1.7 | 7.0 | 0.00 | 0.04 | 0.03 | 78 | 1012.0 |
| 20260905213106 | 81 | 200 | 0.9 | 7.0 | 0.00 | 0.04 | 0.03 | 79 | 1012.4 |
| 20260905211603 | 81 | 229 | 2.6 | 7.8 | 0.00 | 0.04 | 0.03 | 80 | 1012.4 |
| 20260905210059 | 80 | 233 | 1.7 | 7.0 | 0.00 | 0.04 | 0.03 | 83 | 1012.5 |
| 20260905204606 | 78 | 0 | 0.0 | 1.7 | 0.00 | 0.04 | 0.03 | 86 | 1012.4 |
| 20260905203104 | 77 | 281 | 0.0 | 3.5 | 0.00 | 0.04 | 0.03 | 87 | 1012.6 |
| 20260905201618 | 76 | 244 | 0.0 | 5.2 | 0.00 | 0.04 | 0.03 | 90 | 1012.5 |
| 20260905200105 | 76 | 0 | 0.0 | 1.7 | 0.00 | 0.04 | 0.03 | 90 | 1012.6 |
| 20260905194601 | 77 | 237 | 0.0 | 0.9 | 0.00 | 0.04 | 0.03 | 90 | 1013.0 |
| 20260905193114 | 77 | 236 | 0.0 | 0.9 | 0.00 | 0.04 | 0.03 | 89 | 1012.9 |
| 20260905191606 | 76 | 0 | 0.0 | 0.9 | 0.00 | 0.04 | 0.03 | 89 | 1012.6 |
| 20260905184605 | 75 | 0 | 0.0 | 0.0 | 0.03 | 0.04 | 0.03 | 94 | 1012.4 |
| 20260905183057 | 73 | 0 | 0.0 | 0.0 | 0.03 | 0.04 | 0.03 | 94 | 1012.9 |
| 20260905181611 | 73 | 0 | 0.0 | 0.0 | 0.03 | 0.04 | 0.03 | 93 | 1013.1 |
| 20260905174605 | 80 | 281 | 20.0 | 32.2 | 0.00 | 0.01 | 0.00 | 72 | 1014.5 |
| 20260905173056 | 92 | 321 | 3.5 | 6.1 | 0.00 | 0.01 | 0.00 | 54 | 1013.3 |
| 20260905171556 | 93 | 281 | 4.3 | 11.3 | 0.00 | 0.01 | 0.00 | 54 | 1013.4 |
| 20260905170101 | 94 | 342 | 1.7 | 6.1 | 0.00 | 0.01 | 0.00 | 54 | 1013.8 |
| 20260905164558 | 93 | 283 | 2.6 | 11.3 | 0.00 | 0.01 | 0.00 | 56 | 1013.8 |
| 20260905163107 | 93 | 237 | 3.5 | 10.4 | 0.00 | 0.01 | 0.00 | 57 | 1013.9 |
| 20260905161602 | 92 | 245 | 2.6 | 7.0 | 0.00 | 0.01 | 0.00 | 58 | 1014.0 |
| 20260905160101 | 92 | 304 | 2.6 | 7.0 | 0.00 | 0.01 | 0.00 | 58 | 1014.3 |
| 20260905154616 | 91 | 343 | 2.6 | 7.8 | 0.00 | 0.01 | 0.00 | 62 | 1014.2 |
| 20260905153104 | 91 | 18 | 1.7 | 5.2 | 0.00 | 0.01 | 0.00 | 62 | 1014.1 |
| 20260905151605 | 90 | 288 | 3.5 | 7.0 | 0.00 | 0.01 | 0.00 | 62 | 1014.2 |
| 20260905150104 | 90 | 0 | 1.7 | 5.2 | 0.00 | 0.01 | 0.00 | 66 | 1014.4 |
| 20260905144603 | 89 | 160 | 0.9 | 5.2 | 0.00 | 0.01 | 0.00 | 68 | 1014.5 |
| 20260905143058 | 87 | 230 | 0.9 | 5.2 | 0.00 | 0.01 | 0.00 | 72 | 1014.6 |
| 20260905141603 | 85 | 231 | 2.6 | 4.3 | 0.00 | 0.01 | 0.00 | 74 | 1014.5 |
| 20260905140106 | 84 | 277 | 2.6 | 4.3 | 0.00 | 0.01 | 0.00 | 76 | 1014.3 |
| 20260905134601 | 82 | 212 | 2.6 | 4.3 | 0.00 | 0.01 | 0.00 | 79 | 1014.6 |
| 20260905133056 | 81 | 248 | 0.9 | 4.3 | 0.00 | 0.01 | 0.00 | 81 | 1014.7 |
| 20260905131607 | 80 | 221 | 1.7 | 3.5 | 0.00 | 0.01 | 0.00 | 83 | 1014.7 |
| 20260905124605 | 77 | 243 | 1.7 | 2.6 | 0.00 | 0.01 | 0.00 | 87 | 1014.9 |
| 20260905123101 | 75 | 270 | 1.7 | 3.5 | 0.00 | 0.01 | 0.00 | 89 | 1014.8 |
| 20260905121605 | 75 | 0 | 0.0 | 0.0 | 0.00 | 0.01 | 0.00 | 88 | 1014.7 |
| 20260905120105 | 73 | 0 | 0.0 | 0.0 | 0.00 | 0.01 | 0.00 | 93 | 1014.6 |
| 20260905114602 | 71 | 242 | 1.7 | 2.6 | 0.00 | 0.01 | 0.00 | 94 | 1014.4 |
| 20260905113101 | 71 | 254 | 0.0 | 1.7 | 0.00 | 0.01 | 0.00 | 95 | 1014.4 |
| 20260905111610 | 70 | 0 | 0.0 | 0.0 | 0.00 | 0.01 | 0.00 | 95 | 1014.2 |
| 20260905104614 | 70 | 0 | 0.0 | 0.0 | 0.00 | 0.01 | 0.00 | 95 | 1013.7 |
| 20260905103105 | 71 | 0 | 0.0 | 0.0 | 0.00 | 0.01 | 0.00 | 94 | 1013.8 |
| 20260905101604 | 71 | 0 | 0.0 | 0.0 | 0.00 | 0.01 | 0.00 | 95 | 1013.6 |
| 20260905100100 | 71 | 0 | 0.0 | 0.0 | 0.00 | 0.01 | 0.00 | 94 | 1013.4 |
| 20260905094555 | 71 | 0 | 0.0 | 0.0 | 0.00 | 0.01 | 0.00 | 94 | 1013.5 |
| 20260905093105 | 71 | 0 | 0.0 | 0.0 | 0.00 | 0.01 | 0.00 | 93 | 1013.4 |
| 20260905091631 | 72 | 0 | 0.0 | 1.7 | 0.00 | 0.01 | 0.00 | 92 | 1013.3 |
| 20260905090058 | 72 | 32 | 0.0 | 0.9 | 0.00 | 0.01 | 0.00 | 92 | 1013.4 |
| 20260905084611 | 72 | 0 | 0.0 | 0.9 | 0.00 | 0.01 | 0.00 | 91 | 1013.6 |
| 20260905083103 | 73 | 0 | 0.0 | 0.0 | 0.00 | 0.01 | 0.00 | 90 | 1013.7 |
| 20260905081605 | 73 | 0 | 0.0 | 0.9 | 0.00 | 0.01 | 0.00 | 90 | 1013.8 |
| 20260905074631 | 74 | 0 | 0.0 | 0.0 | 0.00 | 0.01 | 0.00 | 90 | 1014.3 |
| 20260905073104 | 74 | 32 | 0.9 | 0.9 | 0.00 | 0.01 | 0.00 | 91 | 1014.3 |